Starlink 35718

operational
NORAD ID: 66894 Int'l Des: 2025-283 Owner: SPXS Country: US Constellation: starlink
LEOCIRCULAR

About Starlink 35718

Description loading...

Live Position

Loading 3D Globe...

Upcoming Passes

Altitude History

Altitude vs Time

uPlot chart will show altitude changes over time

Two-Line Element Set

1 66894U 25283S 25347.25002315 -.01275858 48548-3 -33950-2 0 9994
2 66894 53.1549 71.3210 0001047 82.3966 194.7458 15.93950805 2513
Epoch: Dec 13, 2025 • Age: 21 hours

Current Status

Altitude 302.8 km
Velocity 7.73 km/s
Sub-Earth Point -19.09°S, 81.15°W
Launch Date Dec 4, 2025
Age 9 days
Type internet

Technical Details

Classification Payload
Mass 575.00 kg
Dry Mass 530.00 kg
Total Mass 575.00 kg
Length 0.30 m
Diameter 4.10 m
Span 29.00 m
Shape Box + pan
Manufacturer SPXS
Bus Type Starlink V2MO
Phase Status In Orbit
Owner/State SPXS/US

Large Constellations

Loading constellations...